ACA7031 KMKE-KPHX

Flight info

Callsign ACA7031
Flight time 3h 46m
Altitude 38000
Route GREAS JAYEX HELLO EYHUX OBH ZIRKL HGO KD45U PUMPS GUP EAGUL6
Aircraft A320/M-SDE3FGHIRWY/LB1

Departure

Time 2026-04-24 21:24
Airport General Mitchell International Airport (KMKE)

Arrival

Time 2026-04-25 01:11
Airport Phoenix Sky Harbor International Airport (KPHX)
Time Latitude Longitude Altitude Speed Heading
2026-04-24 21:09 42.95813 -87.89635 688 ft 0 kts 270°
2026-04-24 21:21 42.95813 -87.89636 688 ft 1 kts 270°
2026-04-24 21:21 42.95799 -87.89653 688 ft 3 kts 194°
2026-04-24 21:22 42.95765 -87.89655 685 ft 5 kts 181°
2026-04-24 21:22 42.95743 -87.89597 688 ft 10 kts 91°
2026-04-24 21:22 42.95743 -87.89511 688 ft 8 kts 89°
2026-04-24 21:22 42.95743 -87.89449 688 ft 0 kts 89°
2026-04-24 21:23 42.95744 -87.89418 686 ft 10 kts 89°
2026-04-24 21:23 42.95736 -87.89312 682 ft 9 kts 127°
2026-04-24 21:23 42.95697 -87.89312 686 ft 9 kts 187°
2026-04-24 21:24 42.95450 -87.89355 684 ft 73 kts 188°
2026-04-24 21:24 42.94723 -87.89483 688 ft 137 kts 187°
2026-04-24 21:24 42.93620 -87.89673 855 ft 168 kts 191°
2026-04-24 21:24 42.92480 -87.89833 1650 ft 165 kts 189°
2026-04-24 21:25 42.91286 -87.89997 2071 ft 185 kts 191°
2026-04-24 21:25 42.89939 -87.90261 2426 ft 205 kts 200°
2026-04-24 21:25 42.88722 -87.91337 2804 ft 216 kts 236°
2026-04-24 21:25 42.88121 -87.93264 3273 ft 229 kts 261°
2026-04-24 21:26 42.87886 -87.95515 3830 ft 247 kts 266°
2026-04-24 21:26 42.87969 -87.97887 4687 ft 253 kts 278°
2026-04-24 21:26 42.88118 -87.99301 5234 ft 256 kts 279°
2026-04-24 21:26 42.88380 -88.01738 6157 ft 260 kts 278°
2026-04-24 21:27 42.88650 -88.04201 7022 ft 264 kts 278°
2026-04-24 21:27 42.88927 -88.06696 7933 ft 267 kts 278°
2026-04-24 21:27 42.89207 -88.09217 8810 ft 271 kts 278°
2026-04-24 21:27 42.89493 -88.11776 9723 ft 273 kts 278°
2026-04-24 21:28 42.89775 -88.14340 10402 ft 285 kts 278°
2026-04-24 21:28 42.90078 -88.17117 10736 ft 306 kts 278°
2026-04-24 21:28 42.90396 -88.20029 11397 ft 314 kts 278°
2026-04-24 21:28 42.90721 -88.23009 12179 ft 318 kts 278°
2026-04-24 21:29 42.91048 -88.26009 12980 ft 322 kts 278°
2026-04-24 21:29 42.91379 -88.29048 13769 ft 325 kts 277°
2026-04-24 21:29 42.91710 -88.32113 14454 ft 328 kts 277°
2026-04-24 21:29 42.92039 -88.35172 15123 ft 332 kts 277°
2026-04-24 21:30 42.92377 -88.38313 15799 ft 336 kts 276°
2026-04-24 21:30 42.92718 -88.41484 16457 ft 340 kts 276°
2026-04-24 21:30 42.93062 -88.44703 17112 ft 344 kts 276°
2026-04-24 21:30 42.93407 -88.47952 17788 ft 348 kts 276°
2026-04-24 21:31 42.93755 -88.51238 18436 ft 351 kts 276°
2026-04-24 21:31 42.94090 -88.54546 19009 ft 353 kts 272°
2026-04-24 21:31 42.94223 -88.57900 19578 ft 355 kts 270°
2026-04-24 21:31 42.94332 -88.61247 20152 ft 359 kts 270°
2026-04-24 21:32 42.94438 -88.64660 20743 ft 361 kts 269°
2026-04-24 21:32 42.94541 -88.68108 21318 ft 365 kts 269°
2026-04-24 21:32 42.94648 -88.71586 21884 ft 368 kts 269°
2026-04-24 21:32 42.94754 -88.75097 22451 ft 371 kts 269°
2026-04-24 21:33 42.94860 -88.78635 23016 ft 375 kts 268°
2026-04-24 21:33 42.94933 -88.80999 23384 ft 377 kts 268°
2026-04-24 21:33 42.95079 -88.85780 24018 ft 381 kts 268°
2026-04-24 21:33 42.95187 -88.89410 24469 ft 384 kts 268°
2026-04-24 21:34 42.95292 -88.93064 24934 ft 385 kts 268°
2026-04-24 21:34 42.95396 -88.96726 25403 ft 387 kts 268°
2026-04-24 21:34 42.95503 -89.00406 25870 ft 388 kts 267°
2026-04-24 21:34 42.95607 -89.04101 26333 ft 389 kts 267°
2026-04-24 21:35 42.95711 -89.07801 26790 ft 391 kts 266°
2026-04-24 21:35 42.95814 -89.11513 27239 ft 392 kts 266°
2026-04-24 21:35 42.95914 -89.15196 27669 ft 393 kts 266°
2026-04-24 21:35 42.96013 -89.18937 28110 ft 395 kts 266°
2026-04-24 21:36 42.96110 -89.22695 28540 ft 396 kts 265°
2026-04-24 21:36 42.96208 -89.26459 29068 ft 395 kts 265°
2026-04-24 21:36 42.96303 -89.30199 29589 ft 394 kts 265°
2026-04-24 21:36 42.96399 -89.33940 30004 ft 394 kts 265°
2026-04-24 21:37 42.96494 -89.37690 30315 ft 395 kts 265°
2026-04-24 21:37 42.96589 -89.41406 30586 ft 397 kts 264°
2026-04-24 21:37 42.96683 -89.45203 30844 ft 400 kts 264°
2026-04-24 21:37 42.96774 -89.49007 31096 ft 402 kts 264°
2026-04-24 21:38 42.96865 -89.52843 31338 ft 405 kts 264°
2026-04-24 21:38 42.96957 -89.56692 31665 ft 405 kts 264°
2026-04-24 21:38 42.97052 -89.60536 32013 ft 405 kts 264°
2026-04-24 21:38 42.97143 -89.64376 32345 ft 405 kts 263°
2026-04-24 21:39 42.97230 -89.68176 32673 ft 405 kts 263°
2026-04-24 21:39 42.97315 -89.72023 33006 ft 405 kts 263°
2026-04-24 21:39 42.97401 -89.75888 33335 ft 406 kts 263°
2026-04-24 21:39 42.97487 -89.79750 33673 ft 406 kts 263°
2026-04-24 21:40 42.97570 -89.83600 33977 ft 406 kts 262°
2026-04-24 21:40 42.97651 -89.87470 34278 ft 406 kts 262°
2026-04-24 21:40 42.97730 -89.91268 34586 ft 405 kts 262°
2026-04-24 21:40 42.97807 -89.95114 34896 ft 404 kts 263°
2026-04-24 21:41 42.97882 -89.98953 35214 ft 403 kts 263°
2026-04-24 21:41 42.97953 -90.02775 35568 ft 401 kts 263°
2026-04-24 21:41 42.98025 -90.06580 35881 ft 399 kts 263°
2026-04-24 21:41 42.98098 -90.10372 36164 ft 398 kts 263°
2026-04-24 21:42 42.98168 -90.14104 36430 ft 397 kts 263°
2026-04-24 21:42 42.98238 -90.17887 36688 ft 397 kts 263°
2026-04-24 21:42 42.98307 -90.21659 36931 ft 396 kts 263°
2026-04-24 21:42 42.98237 -90.25393 37153 ft 390 kts 258°
2026-04-24 21:43 42.98109 -90.27851 37299 ft 390 kts 258°
2026-04-24 21:43 42.97853 -90.32750 37593 ft 390 kts 258°
2026-04-24 21:43 42.97660 -90.36445 37798 ft 390 kts 258°
2026-04-24 21:44 42.97335 -90.42585 37866 ft 389 kts 259°
2026-04-24 21:44 42.96942 -90.49962 37875 ft 389 kts 259°
2026-04-24 21:45 42.96552 -90.57303 37877 ft 390 kts 259°
2026-04-24 21:45 42.96152 -90.64687 37882 ft 389 kts 259°
2026-04-24 21:46 42.95746 -90.72034 37886 ft 389 kts 259°
2026-04-24 21:46 42.95336 -90.79428 37909 ft 391 kts 259°
2026-04-24 21:47 42.94916 -90.86864 37891 ft 392 kts 259°
2026-04-24 21:47 42.94495 -90.94257 37894 ft 393 kts 259°
2026-04-24 21:48 42.94075 -91.01720 37896 ft 394 kts 259°
2026-04-24 21:48 42.93640 -91.09148 37899 ft 394 kts 259°
2026-04-24 21:49 42.93194 -91.16608 37926 ft 395 kts 259°
2026-04-24 21:49 42.92742 -91.24093 37901 ft 396 kts 259°
2026-04-24 21:50 42.92293 -91.31605 37897 ft 397 kts 259°
2026-04-24 21:50 42.91844 -91.39067 37894 ft 397 kts 259°
2026-04-24 21:51 42.91378 -91.46597 37893 ft 398 kts 259°
2026-04-24 21:51 42.90909 -91.54090 37937 ft 398 kts 260°
2026-04-24 21:52 42.90432 -91.61627 37923 ft 399 kts 260°
2026-04-24 21:52 42.89956 -91.69198 37922 ft 400 kts 260°
2026-04-24 21:53 42.89481 -91.76711 37923 ft 400 kts 260°
2026-04-24 21:53 42.88993 -91.84281 37925 ft 400 kts 260°
2026-04-24 21:54 42.88498 -91.91851 37969 ft 400 kts 260°
2026-04-24 21:54 42.87997 -91.99379 37941 ft 400 kts 260°
2026-04-24 21:55 42.87490 -92.06940 37934 ft 400 kts 260°
2026-04-24 21:55 42.86976 -92.14507 37939 ft 401 kts 260°
2026-04-24 21:56 42.86462 -92.22042 37943 ft 401 kts 260°
2026-04-24 21:56 42.85944 -92.29574 37974 ft 401 kts 261°
2026-04-24 21:57 42.85420 -92.37147 37962 ft 401 kts 261°
2026-04-24 21:57 42.84893 -92.44712 37955 ft 400 kts 261°
2026-04-24 21:58 42.84360 -92.52273 37952 ft 400 kts 261°
2026-04-24 21:58 42.83818 -92.59772 37949 ft 400 kts 260°
2026-04-24 21:59 42.83271 -92.67327 37981 ft 400 kts 260°
2026-04-24 21:59 42.82723 -92.74885 37967 ft 400 kts 261°
2026-04-24 22:00 42.82171 -92.82384 37957 ft 399 kts 261°
2026-04-24 22:00 42.81611 -92.89916 37954 ft 399 kts 261°
2026-04-24 22:01 42.81044 -92.97448 37958 ft 399 kts 260°
2026-04-24 22:01 42.80476 -93.04955 37955 ft 400 kts 260°
2026-04-24 22:02 42.79905 -93.12451 37971 ft 399 kts 261°
2026-04-24 22:02 42.79328 -93.19979 37963 ft 399 kts 261°
2026-04-24 22:03 42.78746 -93.27489 37957 ft 399 kts 261°
2026-04-24 22:03 42.78148 -93.35007 37957 ft 398 kts 258°
2026-04-24 22:04 42.76826 -93.42246 37957 ft 395 kts 252°
2026-04-24 22:04 42.75374 -93.49464 37954 ft 396 kts 252°
2026-04-24 22:05 42.73918 -93.56696 37968 ft 396 kts 252°
2026-04-24 22:05 42.72466 -93.63883 37965 ft 396 kts 252°
2026-04-24 22:06 42.70997 -93.71128 37969 ft 396 kts 252°
2026-04-24 22:06 42.69541 -93.78304 37962 ft 396 kts 252°
2026-04-24 22:07 42.68069 -93.85534 37980 ft 396 kts 252°
2026-04-24 22:07 42.66585 -93.92767 37979 ft 396 kts 252°
2026-04-24 22:08 42.65106 -93.99933 37981 ft 396 kts 252°
2026-04-24 22:08 42.63615 -94.07142 37977 ft 397 kts 252°
2026-04-24 22:09 42.62116 -94.14356 37972 ft 397 kts 252°
2026-04-24 22:09 42.60612 -94.21578 37990 ft 397 kts 252°
2026-04-24 22:10 42.59116 -94.28757 37982 ft 397 kts 252°
2026-04-24 22:10 42.57615 -94.35978 37984 ft 397 kts 252°
2026-04-24 22:11 42.56104 -94.43181 37988 ft 397 kts 252°
2026-04-24 22:11 42.54589 -94.50334 37994 ft 396 kts 252°
2026-04-24 22:12 42.53068 -94.57528 38020 ft 396 kts 252°
2026-04-24 22:12 42.51545 -94.64708 38000 ft 396 kts 252°
2026-04-24 22:13 42.50020 -94.71848 38004 ft 396 kts 252°
2026-04-24 22:13 42.48489 -94.79012 38004 ft 395 kts 252°
2026-04-24 22:14 42.46956 -94.86169 37998 ft 395 kts 252°
2026-04-24 22:14 42.45422 -94.93289 37987 ft 395 kts 252°
2026-04-24 22:15 42.43881 -95.00439 37999 ft 395 kts 252°
2026-04-24 22:15 42.41941 -95.07369 37986 ft 393 kts 246°
2026-04-24 22:16 42.39888 -95.14230 37982 ft 393 kts 246°
2026-04-24 22:16 42.37840 -95.21050 37978 ft 393 kts 246°
2026-04-24 22:17 42.35773 -95.27915 37978 ft 393 kts 246°
2026-04-24 22:17 42.33715 -95.34728 37988 ft 393 kts 246°
2026-04-24 22:18 42.31640 -95.41588 37984 ft 393 kts 246°
2026-04-24 22:18 42.29562 -95.48431 37978 ft 393 kts 246°
2026-04-24 22:19 42.27497 -95.55219 37974 ft 393 kts 246°
2026-04-24 22:19 42.25412 -95.62051 37967 ft 392 kts 246°
2026-04-24 22:20 42.23348 -95.68823 37961 ft 392 kts 246°
2026-04-24 22:20 42.21265 -95.75636 37969 ft 392 kts 246°
2026-04-24 22:21 42.19168 -95.82448 37964 ft 392 kts 246°
2026-04-24 22:21 42.17089 -95.89200 37963 ft 392 kts 246°
2026-04-24 22:22 42.14990 -95.95991 37962 ft 392 kts 246°
2026-04-24 22:22 42.12887 -96.02771 37958 ft 392 kts 246°
2026-04-24 22:23 42.10799 -96.09500 37977 ft 392 kts 246°
2026-04-24 22:23 42.08694 -96.16286 37970 ft 392 kts 246°
2026-04-24 22:24 42.06581 -96.23049 37966 ft 392 kts 246°
2026-04-24 22:24 42.04477 -96.29778 37964 ft 392 kts 246°
2026-04-24 22:25 42.02361 -96.36548 37960 ft 392 kts 246°
2026-04-24 22:25 42.00245 -96.43257 37944 ft 392 kts 246°
2026-04-24 22:26 41.98111 -96.50021 37964 ft 392 kts 246°
2026-04-24 22:26 41.95992 -96.56726 37964 ft 392 kts 246°
2026-04-24 22:27 41.93857 -96.63463 37967 ft 392 kts 246°
2026-04-24 22:27 41.91725 -96.70169 37966 ft 392 kts 246°
2026-04-24 22:28 41.89580 -96.76900 37963 ft 392 kts 246°
2026-04-24 22:28 41.87430 -96.83628 37964 ft 392 kts 246°
2026-04-24 22:29 41.84215 -96.93672 37971 ft 392 kts 246°
2026-04-24 22:29 41.82061 -97.00391 37970 ft 391 kts 246°
2026-04-24 22:30 41.79904 -97.07106 37967 ft 391 kts 246°
2026-04-24 22:30 41.77743 -97.13810 37965 ft 392 kts 246°
2026-04-24 22:31 41.75577 -97.20501 37946 ft 391 kts 246°
2026-04-24 22:31 41.73418 -97.27158 37953 ft 391 kts 246°
2026-04-24 22:32 41.71239 -97.33849 37957 ft 391 kts 246°
2026-04-24 22:32 41.69071 -97.40493 37956 ft 391 kts 246°
2026-04-24 22:33 41.66885 -97.47175 37965 ft 391 kts 246°
2026-04-24 22:33 41.64699 -97.53856 37970 ft 391 kts 246°
2026-04-24 22:34 41.62525 -97.60481 37993 ft 391 kts 247°
2026-04-24 22:34 41.60334 -97.67134 37965 ft 389 kts 247°
2026-04-24 22:35 41.58153 -97.73729 37957 ft 389 kts 247°
2026-04-24 22:35 41.55963 -97.80358 37953 ft 389 kts 247°
2026-04-24 22:36 41.53769 -97.86983 37952 ft 389 kts 247°
2026-04-24 22:36 41.51589 -97.93555 37950 ft 390 kts 247°
2026-04-24 22:37 41.49378 -98.00177 37930 ft 389 kts 247°
2026-04-24 22:37 41.47169 -98.06778 37948 ft 389 kts 247°
2026-04-24 22:38 41.44976 -98.13338 37953 ft 389 kts 247°
2026-04-24 22:38 41.42762 -98.19935 37954 ft 389 kts 247°
2026-04-24 22:39 41.40558 -98.26489 37954 ft 389 kts 247°
2026-04-24 22:39 41.38336 -98.33081 37954 ft 389 kts 247°
2026-04-24 22:40 41.36016 -98.39588 37956 ft 389 kts 244°
2026-04-24 22:40 41.33503 -98.45923 37954 ft 389 kts 243°
2026-04-24 22:41 41.31348 -98.51248 37949 ft 389 kts 244°
2026-04-24 22:41 41.28833 -98.57565 37949 ft 389 kts 244°
2026-04-24 22:42 41.26320 -98.63939 37947 ft 389 kts 244°
2026-04-24 22:42 41.23801 -98.70327 37938 ft 389 kts 244°
2026-04-24 22:43 41.21278 -98.76689 37924 ft 389 kts 244°
2026-04-24 22:43 41.18767 -98.83005 37921 ft 389 kts 244°
2026-04-24 22:44 41.16235 -98.89363 37926 ft 389 kts 244°
2026-04-24 22:44 41.13711 -98.95677 37917 ft 389 kts 244°
2026-04-24 22:45 41.11174 -99.02018 37919 ft 389 kts 244°
2026-04-24 22:45 41.08651 -99.08316 37918 ft 389 kts 244°
2026-04-24 22:46 41.06103 -99.14670 37915 ft 389 kts 244°
2026-04-24 22:46 41.03564 -99.20996 37912 ft 388 kts 244°
2026-04-24 22:47 41.01030 -99.27274 37908 ft 388 kts 244°
2026-04-24 22:47 40.98469 -99.33583 37906 ft 388 kts 244°
2026-04-24 22:48 40.95917 -99.39889 37868 ft 388 kts 244°
2026-04-24 22:48 40.93373 -99.46157 37874 ft 388 kts 244°
2026-04-24 22:49 40.90826 -99.52416 37880 ft 388 kts 244°
2026-04-24 22:49 40.88257 -99.58718 37879 ft 388 kts 244°
2026-04-24 22:50 40.85689 -99.65004 37881 ft 389 kts 244°
2026-04-24 22:50 40.83132 -99.71254 37879 ft 388 kts 244°
2026-04-24 22:51 40.80558 -99.77538 37876 ft 388 kts 244°
2026-04-24 22:51 40.77984 -99.83809 37875 ft 388 kts 244°
2026-04-24 22:52 40.75412 -99.90052 37869 ft 389 kts 244°
2026-04-24 22:52 40.72820 -99.96328 37867 ft 390 kts 244°
2026-04-24 22:53 40.70216 -100.02619 37864 ft 390 kts 244°
2026-04-24 22:53 40.67621 -100.08870 37842 ft 390 kts 244°
2026-04-24 22:54 40.65010 -100.15147 37846 ft 390 kts 244°
2026-04-24 22:54 40.62419 -100.21384 37852 ft 390 kts 244°
2026-04-24 22:55 40.59802 -100.27664 37850 ft 391 kts 244°
2026-04-24 22:55 40.57187 -100.33909 37848 ft 391 kts 244°
2026-04-24 22:56 40.54558 -100.40184 37850 ft 391 kts 244°
2026-04-24 22:56 40.51923 -100.46454 37847 ft 391 kts 244°
2026-04-24 22:57 40.49300 -100.52694 37850 ft 392 kts 244°
2026-04-24 22:57 40.46675 -100.58933 37867 ft 392 kts 244°
2026-04-24 22:58 40.44029 -100.65191 37871 ft 391 kts 244°
2026-04-24 22:58 40.41381 -100.71435 37860 ft 390 kts 244°
2026-04-24 22:59 40.38758 -100.77619 37856 ft 389 kts 244°
2026-04-24 23:00 40.34798 -100.86929 37864 ft 388 kts 244°
2026-04-24 23:00 40.32188 -100.93056 37857 ft 387 kts 244°
2026-04-24 23:01 40.29567 -100.99212 37860 ft 386 kts 244°
2026-04-24 23:01 40.26942 -101.05357 37820 ft 386 kts 244°
2026-04-24 23:02 40.24328 -101.11464 37822 ft 386 kts 244°
2026-04-24 23:02 40.21689 -101.17588 37820 ft 386 kts 244°
2026-04-24 23:03 40.19052 -101.23712 37813 ft 385 kts 244°
2026-04-24 23:03 40.16430 -101.29792 37816 ft 385 kts 244°
2026-04-24 23:04 40.13789 -101.35911 37770 ft 386 kts 244°
2026-04-24 23:04 40.10704 -101.41678 37769 ft 390 kts 237°
2026-04-24 23:05 40.07462 -101.47400 37753 ft 391 kts 237°
2026-04-24 23:05 40.04231 -101.53091 37758 ft 392 kts 237°
2026-04-24 23:06 40.00973 -101.58826 37763 ft 393 kts 237°
2026-04-24 23:06 39.97713 -101.64560 37755 ft 393 kts 237°
2026-04-24 23:07 39.94478 -101.70252 37776 ft 393 kts 238°
2026-04-24 23:07 39.91208 -101.75973 37771 ft 393 kts 237°
2026-04-24 23:08 39.87945 -101.81673 37774 ft 394 kts 238°
2026-04-24 23:08 39.84681 -101.87379 37752 ft 393 kts 238°
2026-04-24 23:09 39.81412 -101.93084 37770 ft 392 kts 237°
2026-04-24 23:09 39.78156 -101.98749 37777 ft 392 kts 237°
2026-04-24 23:10 39.74892 -102.04425 37807 ft 391 kts 238°
2026-04-24 23:10 39.71646 -102.10047 37764 ft 386 kts 238°
2026-04-24 23:11 39.68435 -102.15608 37759 ft 386 kts 238°
2026-04-24 23:11 39.65216 -102.21175 37746 ft 385 kts 238°
2026-04-24 23:12 39.62008 -102.26707 37745 ft 385 kts 238°
2026-04-24 23:12 39.58779 -102.32275 37703 ft 385 kts 238°
2026-04-24 23:13 39.55554 -102.37821 37712 ft 385 kts 238°
2026-04-24 23:13 39.52340 -102.43329 37709 ft 385 kts 238°
2026-04-24 23:14 39.49107 -102.48875 37705 ft 385 kts 238°
2026-04-24 23:14 39.45869 -102.54416 37707 ft 385 kts 238°
2026-04-24 23:15 39.42642 -102.59911 37709 ft 385 kts 238°
2026-04-24 23:15 39.39401 -102.65432 37728 ft 386 kts 238°
2026-04-24 23:16 39.36155 -102.70961 37729 ft 386 kts 238°
2026-04-24 23:16 39.32903 -102.76488 37723 ft 386 kts 238°
2026-04-24 23:17 39.29664 -102.81988 37697 ft 386 kts 238°
2026-04-24 23:17 39.26401 -102.87515 37714 ft 386 kts 238°
2026-04-24 23:18 39.23162 -102.92975 37720 ft 386 kts 238°
2026-04-24 23:18 39.19901 -102.98469 37724 ft 385 kts 238°
2026-04-24 23:19 39.16653 -103.03925 37725 ft 385 kts 238°
2026-04-24 23:19 39.13377 -103.09437 37721 ft 385 kts 238°
2026-04-24 23:20 39.10139 -103.14880 37720 ft 385 kts 238°
2026-04-24 23:20 39.06887 -103.20330 37721 ft 384 kts 238°
2026-04-24 23:21 39.03622 -103.25792 37686 ft 384 kts 238°
2026-04-24 23:21 39.00365 -103.31235 37698 ft 383 kts 238°
2026-04-24 23:22 38.97124 -103.36635 37705 ft 383 kts 238°
2026-04-24 23:22 38.93855 -103.42062 37715 ft 383 kts 238°
2026-04-24 23:23 38.90590 -103.47486 37719 ft 383 kts 238°
2026-04-24 23:23 38.87339 -103.52880 37721 ft 383 kts 238°
2026-04-24 23:24 38.84077 -103.58275 37719 ft 382 kts 238°
2026-04-24 23:24 38.80842 -103.63667 37723 ft 380 kts 240°
2026-04-24 23:25 38.77858 -103.69182 37721 ft 378 kts 242°
2026-04-24 23:25 38.74942 -103.74791 37703 ft 377 kts 242°
2026-04-24 23:26 38.72021 -103.80319 37708 ft 376 kts 242°
2026-04-24 23:26 38.69050 -103.85842 37715 ft 376 kts 241°
2026-04-24 23:27 38.66070 -103.91359 37723 ft 375 kts 242°
2026-04-24 23:27 38.63114 -103.96838 37716 ft 374 kts 242°
2026-04-24 23:28 38.60175 -104.02285 37715 ft 373 kts 242°
2026-04-24 23:28 38.57223 -104.07749 37707 ft 373 kts 242°
2026-04-24 23:29 38.54289 -104.13161 37703 ft 372 kts 242°
2026-04-24 23:29 38.51335 -104.18599 37703 ft 372 kts 242°
2026-04-24 23:30 38.48377 -104.24036 37685 ft 372 kts 242°
2026-04-24 23:30 38.45415 -104.29462 37683 ft 372 kts 242°
2026-04-24 23:31 38.42472 -104.34855 37710 ft 372 kts 242°
2026-04-24 23:31 38.39514 -104.40287 37730 ft 372 kts 242°
2026-04-24 23:32 38.36572 -104.45667 37747 ft 372 kts 242°
2026-04-24 23:32 38.33605 -104.51072 37747 ft 372 kts 242°
2026-04-24 23:33 38.30651 -104.56445 37746 ft 372 kts 241°
2026-04-24 23:33 38.27676 -104.61851 37750 ft 372 kts 241°
2026-04-24 23:34 38.24703 -104.67246 37744 ft 372 kts 241°
2026-04-24 23:34 38.21718 -104.72653 37735 ft 372 kts 241°
2026-04-24 23:35 38.18758 -104.78012 37725 ft 373 kts 241°
2026-04-24 23:35 38.15773 -104.83406 37699 ft 372 kts 241°
2026-04-24 23:36 38.12792 -104.88786 37702 ft 371 kts 241°
2026-04-24 23:36 38.09837 -104.94109 37702 ft 371 kts 241°
2026-04-24 23:37 38.06851 -104.99464 37708 ft 371 kts 241°
2026-04-24 23:37 38.02399 -105.07441 37752 ft 370 kts 241°
2026-04-24 23:38 37.99415 -105.12785 37753 ft 371 kts 241°
2026-04-24 23:38 37.96429 -105.18118 37757 ft 371 kts 241°
2026-04-24 23:39 37.93943 -105.22557 37801 ft 371 kts 241°
2026-04-24 23:39 37.90945 -105.27894 37797 ft 371 kts 241°
2026-04-24 23:40 37.87960 -105.33195 37779 ft 371 kts 241°
2026-04-24 23:40 37.84966 -105.38511 37822 ft 370 kts 241°
2026-04-24 23:41 37.82001 -105.43771 37823 ft 369 kts 241°
2026-04-24 23:41 37.79008 -105.49065 37828 ft 369 kts 241°
2026-04-24 23:42 37.76018 -105.54351 37836 ft 368 kts 241°
2026-04-24 23:42 37.73060 -105.59577 37834 ft 368 kts 241°
2026-04-24 23:43 37.70075 -105.64832 37843 ft 367 kts 241°
2026-04-24 23:43 37.67096 -105.70076 37871 ft 366 kts 241°
2026-04-24 23:44 37.64148 -105.75256 37890 ft 365 kts 241°
2026-04-24 23:44 37.61175 -105.80460 37901 ft 365 kts 241°
2026-04-24 23:45 37.58213 -105.85650 37914 ft 364 kts 241°
2026-04-24 23:45 37.55256 -105.90823 37906 ft 363 kts 241°
2026-04-24 23:46 37.52310 -105.95963 37832 ft 362 kts 241°
2026-04-24 23:46 37.49266 -106.00995 37789 ft 367 kts 234°
2026-04-24 23:47 37.45777 -106.05719 37804 ft 367 kts 234°
2026-04-24 23:47 37.42287 -106.10436 37826 ft 368 kts 234°
2026-04-24 23:48 37.38811 -106.15139 37827 ft 369 kts 234°
2026-04-24 23:48 37.35323 -106.19843 37831 ft 369 kts 234°
2026-04-24 23:49 37.31813 -106.24572 37865 ft 370 kts 234°
2026-04-24 23:49 37.28315 -106.29275 37872 ft 369 kts 234°
2026-04-24 23:50 37.24800 -106.33994 37881 ft 370 kts 234°
2026-04-24 23:50 37.21274 -106.38729 37897 ft 371 kts 234°
2026-04-24 23:51 37.17767 -106.43424 37898 ft 372 kts 234°
2026-04-24 23:51 37.14218 -106.48165 37895 ft 372 kts 234°
2026-04-24 23:52 37.10664 -106.52902 37897 ft 372 kts 234°
2026-04-24 23:52 37.07136 -106.57616 37898 ft 373 kts 234°
2026-04-24 23:53 37.03580 -106.62362 37901 ft 373 kts 234°
2026-04-24 23:53 37.00025 -106.67106 37874 ft 373 kts 234°
2026-04-24 23:54 36.96477 -106.71804 37901 ft 372 kts 234°
2026-04-24 23:54 36.92924 -106.76509 37914 ft 371 kts 234°
2026-04-24 23:55 36.89382 -106.81198 37904 ft 370 kts 234°
2026-04-24 23:55 36.85865 -106.85846 37881 ft 370 kts 234°
2026-04-24 23:56 36.82324 -106.90508 37885 ft 369 kts 234°
2026-04-24 23:56 36.78796 -106.95165 37880 ft 368 kts 234°
2026-04-24 23:57 36.75291 -106.99794 37855 ft 368 kts 234°
2026-04-24 23:57 36.71753 -107.04436 37853 ft 368 kts 234°
2026-04-24 23:58 36.68235 -107.09043 37830 ft 368 kts 234°
2026-04-24 23:58 36.64700 -107.13666 37833 ft 367 kts 234°
2026-04-24 23:59 36.61199 -107.18247 37842 ft 367 kts 234°
2026-04-24 23:59 36.57686 -107.22844 37841 ft 366 kts 234°
2026-04-25 00:00 36.54161 -107.27441 37844 ft 366 kts 233°
2026-04-25 00:00 36.50666 -107.32000 37845 ft 366 kts 234°
2026-04-25 00:01 36.47147 -107.36588 37842 ft 366 kts 233°
2026-04-25 00:01 36.43622 -107.41170 37828 ft 366 kts 233°
2026-04-25 00:02 36.40093 -107.45744 37789 ft 366 kts 233°
2026-04-25 00:02 36.36574 -107.50297 37794 ft 367 kts 233°
2026-04-25 00:03 36.33057 -107.54850 37800 ft 367 kts 233°
2026-04-25 00:03 36.29518 -107.59435 37807 ft 367 kts 233°
2026-04-25 00:04 36.25997 -107.63989 37808 ft 367 kts 233°
2026-04-25 00:04 36.22443 -107.68558 37810 ft 367 kts 234°
2026-04-25 00:05 36.19309 -107.73414 37811 ft 362 kts 239°
2026-04-25 00:05 36.16239 -107.78371 37802 ft 362 kts 239°
2026-04-25 00:06 36.13164 -107.83321 37806 ft 362 kts 239°
2026-04-25 00:06 36.10109 -107.88233 37776 ft 362 kts 239°
2026-04-25 00:07 36.07040 -107.93176 37779 ft 362 kts 239°
2026-04-25 00:07 36.03957 -107.98119 37784 ft 362 kts 239°
2026-04-25 00:08 36.00890 -108.03025 37780 ft 362 kts 239°
2026-04-25 00:08 35.97798 -108.07963 37781 ft 362 kts 239°
2026-04-25 00:09 35.94727 -108.12863 37787 ft 363 kts 239°
2026-04-25 00:09 35.91633 -108.17790 37784 ft 363 kts 238°
2026-04-25 00:10 35.88545 -108.22714 37789 ft 363 kts 239°
2026-04-25 00:10 35.85459 -108.27640 37789 ft 363 kts 239°
2026-04-25 00:11 35.82373 -108.32535 37788 ft 363 kts 238°
2026-04-25 00:11 35.79261 -108.37453 37746 ft 363 kts 238°
2026-04-25 00:12 35.76174 -108.42335 37768 ft 363 kts 238°
2026-04-25 00:12 35.73069 -108.47245 37766 ft 364 kts 238°
2026-04-25 00:13 35.69952 -108.52166 37773 ft 364 kts 238°
2026-04-25 00:13 35.66834 -108.57080 37781 ft 364 kts 239°
2026-04-25 00:14 35.63737 -108.61967 37774 ft 364 kts 238°
2026-04-25 00:14 35.60611 -108.66877 37779 ft 364 kts 238°
2026-04-25 00:15 35.57504 -108.71746 37782 ft 364 kts 238°
2026-04-25 00:15 35.54376 -108.76640 37978 ft 364 kts 238°
2026-04-25 00:16 35.51268 -108.81511 37973 ft 363 kts 238°
2026-04-25 00:16 35.48145 -108.86395 37933 ft 363 kts 238°
2026-04-25 00:17 35.44716 -108.91019 37924 ft 367 kts 234°
2026-04-25 00:17 35.41215 -108.95549 37892 ft 367 kts 234°
2026-04-25 00:18 35.37692 -109.00094 37862 ft 367 kts 234°
2026-04-25 00:18 35.34198 -109.04611 37833 ft 367 kts 234°
2026-04-25 00:19 35.30677 -109.09157 37793 ft 367 kts 234°
2026-04-25 00:19 35.27160 -109.13696 37768 ft 367 kts 234°
2026-04-25 00:20 35.23651 -109.18221 37769 ft 368 kts 234°
2026-04-25 00:20 35.20119 -109.22758 37764 ft 368 kts 234°
2026-04-25 00:21 35.16592 -109.27304 37736 ft 368 kts 234°
2026-04-25 00:21 35.13072 -109.31819 37776 ft 368 kts 234°
2026-04-25 00:22 35.09527 -109.36354 37762 ft 369 kts 234°
2026-04-25 00:22 35.06013 -109.40847 37770 ft 369 kts 234°
2026-04-25 00:23 35.02465 -109.45370 37759 ft 368 kts 234°
2026-04-25 00:23 34.98918 -109.49893 37770 ft 368 kts 234°
2026-04-25 00:24 34.95385 -109.54402 37781 ft 367 kts 234°
2026-04-25 00:24 34.91881 -109.58864 37771 ft 366 kts 234°
2026-04-25 00:25 34.88345 -109.63362 37768 ft 366 kts 234°
2026-04-25 00:25 34.84816 -109.67834 37747 ft 366 kts 234°
2026-04-25 00:26 34.81316 -109.72280 37759 ft 365 kts 234°
2026-04-25 00:26 34.77813 -109.76756 37765 ft 365 kts 234°
2026-04-25 00:27 34.74297 -109.81233 37780 ft 365 kts 234°
2026-04-25 00:27 34.70933 -109.85810 37780 ft 357 kts 243°
2026-04-25 00:28 34.68752 -109.91106 37783 ft 351 kts 250°
2026-04-25 00:28 34.66744 -109.96512 37806 ft 351 kts 250°
2026-04-25 00:29 34.65379 -110.00178 37805 ft 351 kts 250°
2026-04-25 00:43 34.64688 -110.02028 37815 ft 353 kts 249°
2026-04-25 00:43 34.62649 -110.07471 37810 ft 351 kts 250°
2026-04-25 00:44 34.61631 -110.10198 37639 ft 359 kts 250°
2026-04-25 00:44 34.60605 -110.12956 37368 ft 365 kts 250°
2026-04-25 00:44 34.59559 -110.15754 37069 ft 359 kts 250°
2026-04-25 00:44 34.58534 -110.18481 36683 ft 352 kts 250°
2026-04-25 00:45 34.57521 -110.21170 36288 ft 345 kts 250°
2026-04-25 00:45 34.56533 -110.23794 35886 ft 340 kts 250°
2026-04-25 00:45 34.55571 -110.26351 35499 ft 335 kts 250°
2026-04-25 00:45 34.54609 -110.28912 35087 ft 330 kts 250°
2026-04-25 00:46 34.53664 -110.31431 34681 ft 326 kts 250°
2026-04-25 00:46 34.52724 -110.33932 34289 ft 323 kts 250°
2026-04-25 00:46 34.50872 -110.38835 33451 ft 316 kts 249°
2026-04-25 00:47 34.49975 -110.41212 33063 ft 311 kts 249°
2026-04-25 00:47 34.49079 -110.43588 32701 ft 308 kts 250°
2026-04-25 00:47 34.48165 -110.46019 32558 ft 325 kts 250°
2026-04-25 00:47 34.47210 -110.48559 32366 ft 334 kts 249°
2026-04-25 00:48 34.46235 -110.51138 32172 ft 337 kts 249°
2026-04-25 00:48 34.45252 -110.53732 31961 ft 338 kts 249°
2026-04-25 00:48 34.44284 -110.56286 31753 ft 337 kts 249°
2026-04-25 00:48 34.43306 -110.58863 31542 ft 337 kts 249°
2026-04-25 00:49 34.42326 -110.61437 31335 ft 336 kts 249°
2026-04-25 00:49 34.41342 -110.64015 31133 ft 336 kts 249°
2026-04-25 00:49 34.40363 -110.66582 30924 ft 335 kts 249°
2026-04-25 00:49 34.39388 -110.69138 30715 ft 334 kts 249°
2026-04-25 00:50 34.38412 -110.71694 30513 ft 333 kts 249°
2026-04-25 00:50 34.37452 -110.74215 30305 ft 333 kts 248°
2026-04-25 00:50 34.36480 -110.76765 30104 ft 332 kts 248°
2026-04-25 00:50 34.35393 -110.79245 29880 ft 334 kts 241°
2026-04-25 00:51 34.33943 -110.81478 29372 ft 340 kts 232°
2026-04-25 00:51 34.32346 -110.83534 28854 ft 337 kts 232°
2026-04-25 00:51 34.30742 -110.85595 28352 ft 334 kts 232°
2026-04-25 00:51 34.29158 -110.87632 27867 ft 332 kts 232°
2026-04-25 00:52 34.27583 -110.89662 27378 ft 329 kts 232°
2026-04-25 00:52 34.26021 -110.91678 26894 ft 327 kts 232°
2026-04-25 00:52 34.24466 -110.93685 26416 ft 326 kts 232°
2026-04-25 00:52 34.22921 -110.95680 25941 ft 324 kts 232°
2026-04-25 00:53 34.21385 -110.97667 25471 ft 322 kts 232°
2026-04-25 00:53 34.19878 -110.99617 24994 ft 320 kts 232°
2026-04-25 00:53 34.18360 -111.01575 24534 ft 319 kts 232°
2026-04-25 00:53 34.16841 -111.03534 24068 ft 317 kts 232°
2026-04-25 00:54 34.15337 -111.05473 23604 ft 315 kts 232°
2026-04-25 00:54 34.13841 -111.07398 23082 ft 314 kts 232°
2026-04-25 00:54 34.12369 -111.09289 22617 ft 311 kts 232°
2026-04-25 00:54 34.10889 -111.11189 22159 ft 309 kts 232°
2026-04-25 00:55 34.09420 -111.13075 21703 ft 308 kts 232°
2026-04-25 00:55 34.07957 -111.14951 21245 ft 306 kts 232°
2026-04-25 00:55 34.06495 -111.16827 20786 ft 305 kts 231°
2026-04-25 00:55 34.05042 -111.18690 20326 ft 304 kts 231°
2026-04-25 00:56 34.03594 -111.20547 19870 ft 303 kts 231°
2026-04-25 00:56 34.02148 -111.22400 19420 ft 302 kts 231°
2026-04-25 00:56 34.00731 -111.24222 18972 ft 302 kts 231°
2026-04-25 00:56 33.99291 -111.26075 18518 ft 303 kts 230°
2026-04-25 00:57 33.97844 -111.27929 18051 ft 304 kts 230°
2026-04-25 00:57 33.96398 -111.29776 17589 ft 303 kts 230°
2026-04-25 00:57 33.94959 -111.31612 17210 ft 299 kts 230°
2026-04-25 00:57 33.93520 -111.33445 16749 ft 299 kts 230°
2026-04-25 00:58 33.92110 -111.35242 16267 ft 299 kts 230°
2026-04-25 00:58 33.90689 -111.37052 15839 ft 298 kts 230°
2026-04-25 00:58 33.89274 -111.38858 15534 ft 294 kts 229°
2026-04-25 00:58 33.87826 -111.40593 15145 ft 294 kts 223°
2026-04-25 00:59 33.86172 -111.42060 14745 ft 296 kts 219°
2026-04-25 00:59 33.84498 -111.43499 14389 ft 295 kts 219°
2026-04-25 00:59 33.82833 -111.44925 14006 ft 293 kts 218°
2026-04-25 00:59 33.81173 -111.46349 13632 ft 292 kts 218°
2026-04-25 01:00 33.79520 -111.47771 13260 ft 290 kts 218°
2026-04-25 01:00 33.77880 -111.49183 12869 ft 289 kts 218°
2026-04-25 01:00 33.76269 -111.50569 12475 ft 287 kts 218°
2026-04-25 01:00 33.74643 -111.51968 12076 ft 286 kts 218°
2026-04-25 01:01 33.73027 -111.53354 11680 ft 284 kts 218°
2026-04-25 01:01 33.71428 -111.54724 11226 ft 280 kts 218°
2026-04-25 01:01 33.69846 -111.56077 10582 ft 275 kts 218°
2026-04-25 01:01 33.68331 -111.57370 10330 ft 257 kts 218°
2026-04-25 01:02 33.66930 -111.58563 10211 ft 237 kts 218°
2026-04-25 01:02 33.65633 -111.59672 10104 ft 221 kts 218°
2026-04-25 01:02 33.64397 -111.60736 10009 ft 224 kts 219°
2026-04-25 01:02 33.63108 -111.61839 9685 ft 230 kts 218°
2026-04-25 01:03 33.61786 -111.62952 9304 ft 231 kts 218°
2026-04-25 01:03 33.60464 -111.64055 8958 ft 231 kts 217°
2026-04-25 01:03 33.59142 -111.65155 8601 ft 231 kts 217°
2026-04-25 01:03 33.57825 -111.66252 8260 ft 230 kts 217°
2026-04-25 01:04 33.56512 -111.67350 7917 ft 229 kts 217°
2026-04-25 01:04 33.55222 -111.68431 7565 ft 229 kts 217°
2026-04-25 01:04 33.53921 -111.69528 7242 ft 228 kts 218°
2026-04-25 01:04 33.52619 -111.70628 6902 ft 228 kts 217°
2026-04-25 01:05 33.51317 -111.71725 6562 ft 228 kts 217°
2026-04-25 01:05 33.50039 -111.72800 6236 ft 227 kts 218°
2026-04-25 01:05 33.48744 -111.73889 5883 ft 226 kts 217°
2026-04-25 01:05 33.47458 -111.74975 5534 ft 225 kts 218°
2026-04-25 01:06 33.46177 -111.76062 5205 ft 224 kts 218°
2026-04-25 01:06 33.44951 -111.77158 4903 ft 220 kts 227°
2026-04-25 01:06 33.44197 -111.78699 4606 ft 216 kts 257°
2026-04-25 01:06 33.44066 -111.80486 4305 ft 216 kts 267°
2026-04-25 01:07 33.44041 -111.82270 3859 ft 212 kts 269°
2026-04-25 01:07 33.44048 -111.83995 3536 ft 200 kts 269°
2026-04-25 01:07 33.44054 -111.85582 3316 ft 180 kts 270°
2026-04-25 01:07 33.44057 -111.87008 3095 ft 166 kts 270°
2026-04-25 01:08 33.44060 -111.88330 2877 ft 150 kts 270°
2026-04-25 01:08 33.44063 -111.89517 2693 ft 137 kts 268°
2026-04-25 01:08 33.44066 -111.90632 2523 ft 131 kts 268°
2026-04-25 01:08 33.44068 -111.91702 2359 ft 127 kts 270°
2026-04-25 01:09 33.44070 -111.92736 2205 ft 124 kts 269°
2026-04-25 01:09 33.44072 -111.93774 2048 ft 127 kts 269°
2026-04-25 01:09 33.44074 -111.94837 1885 ft 126 kts 271°
2026-04-25 01:09 33.44076 -111.95898 1731 ft 127 kts 269°
2026-04-25 01:10 33.44092 -111.96952 1615 ft 125 kts 268°
2026-04-25 01:10 33.44080 -111.97985 1430 ft 123 kts 270°
2026-04-25 01:10 33.44081 -111.98993 1216 ft 121 kts 268°
2026-04-25 01:10 33.44083 -111.99966 1135 ft 104 kts 270°
2026-04-25 01:11 33.44085 -112.00654 1129 ft 61 kts 270°
2026-04-25 01:11 33.44085 -112.00976 1130 ft 22 kts 271°
2026-04-25 01:11 33.44036 -112.01089 1130 ft 12 kts 205°
2026-04-25 01:11 33.43976 -112.01051 1123 ft 10 kts 98°
2026-04-25 01:12 33.43974 -112.00965 1123 ft 10 kts 90°
2026-04-25 01:12 33.43975 -112.00880 1120 ft 10 kts 89°
2026-04-25 01:12 33.43975 -112.00800 1124 ft 9 kts 90°
2026-04-25 01:12 33.43974 -112.00720 1126 ft 12 kts 91°
2026-04-25 01:13 33.43973 -112.00591 1123 ft 18 kts 90°
2026-04-25 01:13 33.43975 -112.00455 1124 ft 15 kts 89°
2026-04-25 01:13 33.43940 -112.00378 1124 ft 10 kts 180°
2026-04-25 01:13 33.43857 -112.00379 1121 ft 14 kts 180°
2026-04-25 01:14 33.43749 -112.00380 1125 ft 17 kts 180°
2026-04-25 01:14 33.43621 -112.00380 1122 ft 20 kts 180°
2026-04-25 01:14 33.43480 -112.00378 1121 ft 21 kts 181°
2026-04-25 01:14 33.43330 -112.00380 1117 ft 22 kts 180°
2026-04-25 01:15 33.43218 -112.00353 1125 ft 12 kts 130°
2026-04-25 01:15 33.43156 -112.00321 1133 ft 8 kts 178°
2026-04-25 01:15 33.43076 -112.00322 1133 ft 15 kts 180°
2026-04-25 01:15 33.42995 -112.00377 1125 ft 16 kts 262°
2026-04-25 01:16 33.42995 -112.00525 1124 ft 19 kts 270°
2026-04-25 01:16 33.42993 -112.00692 1126 ft 20 kts 270°
2026-04-25 01:16 33.42994 -112.00865 1127 ft 21 kts 270°
2026-04-25 01:16 33.42979 -112.01035 1121 ft 19 kts 239°
2026-04-25 01:17 33.42866 -112.01081 1132 ft 17 kts 182°
2026-04-25 01:17 33.42796 -112.01090 1121 ft 14 kts 203°
2026-04-25 01:17 33.42775 -112.01229 1126 ft 15 kts 270°
2026-04-25 01:17 33.42776 -112.01385 1126 ft 22 kts 270°
2026-04-25 01:18 33.42774 -112.01564 1126 ft 21 kts 269°
2026-04-25 01:18 33.42775 -112.01737 1125 ft 20 kts 271°
2026-04-25 01:18 33.42775 -112.01911 1125 ft 22 kts 269°
2026-04-25 01:18 33.42775 -112.02082 1124 ft 18 kts 270°
2026-04-25 01:19 33.42776 -112.02228 1124 ft 18 kts 270°
2026-04-25 01:19 33.42775 -112.02381 1124 ft 15 kts 268°
2026-04-25 01:19 33.42729 -112.02435 1120 ft 8 kts 228°
2026-04-25 01:19 33.42723 -112.02504 1121 ft 7 kts 268°
2026-04-25 01:20 33.42712 -112.02508 1117 ft 2 kts 144°
2026-04-25 01:20 33.42708 -112.02501 1118 ft 1 kts 120°
2026-04-25 01:20 33.42709 -112.02497 1118 ft 1 kts 96°
2026-04-25 01:20 33.42709 -112.02491 1113 ft 0 kts 91°